Regional Weather Roundup
Issued by NWS

Home | Current Version | Previous Version | Graphics & Text | Print | Product List | Glossary On
Versions: 1 2 3 4 5 6 7 8 9 10 11 12 13 14 15 16 17 18 19 20 21 22 23 24 25 26 27 28 29 30 31 32 33 34 35 36 37 38 39 40 41 42 43 44 45 46 47 48 49 50
000
ASUS43 KIND 270109
RWRIN

WEATHER ROUNDUP FOR INDIANA
NATIONAL WEATHER SERVICE INDIANAPOLIS IN
900 PM EDT TUE MAY 26 2015

NOTE: "FAIR" INDICATES FEW OR NO CLOUDS BELOW 12,000 FEET WITH NO
SIGNIFICANT WEATHER AND/OR OBSTRUCTIONS TO VISIBILITY.

* - STATION DOES NOT REPORT WEATHER SUCH AS PRECIPITATION OR FOG.

+ - STATION NOT QUALITY CONTROLLED BY THE NATIONAL WEATHER SERVICE.
    USE DATA WITH CAUTION...ESPECIALLY DEWPOINT AND RELATIVE
    HUMIDITY OBSERVATIONS.

INZ001>003-010>013-019-020-270200-
NORTHWEST INDIANA

CITY           SKY/WX    TMP DP  RH WIND       PRES   REMARKS
GARY /AIRPORT/ PTCLDY    73  61  64 SW12G23   29.83R
KNOX *+        PTCLDY    70  59  68 SW14G20   29.86R
LA PORTE +     PTCLDY    72  60  65 SW16G23   29.86R
MICHIGAN CITY+ CLEAR     70  57  64 SW14G21   29.84R
MONTICELLO +   CLOUDY    69  63  80 SW13G23   29.89S
RENSSELAER +   PTCLDY    70  63  78 S10       29.88S
VALPARAISO     CLEAR     71  60  68 SW15G24   29.86R

$$

LMZ046-743>745-270200-
SOUTHERN LAKE MICHIGAN

STATION/POSITION TIME  TEMP    WIND        PRES    WAVE
                       AIR SEA DIR/SP/G            HT
                 (UTC) (F)     (DEG/KT/KT) (MB)    (FT)
BURNS HARBOR     0100   71     220/ 16/ 19 1010.5R
MICHIGAN CITY    0100   71     200/ 20/ 25   N/A
5NW MICH CITY    0100   62 52  240/ 14/ 17   N/A     3

$$

INZ004-005-014>016-021>024-270200-
NORTH CENTRAL INDIANA

CITY           SKY/WX    TMP DP  RH WIND       PRES   REMARKS
ELKHART        MOCLDY    70  64  83 SW9       29.85S
GOSHEN         MOCLDY    73  62  68 SW18G24   29.85S
LOGANSPORT +   MOCLDY    72  55  56 SW17G25   29.90R
PERU/GRISSOM   MOCLDY    75  59  56 SW18G28   29.89R
ROCHESTER +    MOCLDY    75  61  60 SW15G24   29.89R
SOUTH BEND     PTCLDY    72  61  68 SW16G25   29.85R
WARSAW +       PTCLDY    73  59  60 SW9G16    29.87S

$$

INZ006>009-017-018-025>027-270200-
NORTHEAST INDIANA

CITY           SKY/WX    TMP DP  RH WIND       PRES   REMARKS
ANGOLA *+      MOCLDY    72  64  78 S8        29.87S
AUBURN +       PTCLDY    72  64  78 S7        29.88F
FORT WAYNE     MOCLDY    72  66  81 S14       29.89S
HUNTINGTON +   MOCLDY    73  66  80 S9        29.89S

$$

INZ028-029-035-036-043>045-051>053-270200-
WEST CENTRAL INDIANA

CITY           SKY/WX    TMP DP  RH WIND       PRES   REMARKS
CRAWFORDSVL +  CLEAR     70  53  54 SW8       29.93R
GREENCASTLE +  CLEAR     70  54  56 SW3       29.95R
LAFAYETTE      CLOUDY    70  61  73 W8        29.90R
TERRE HAUTE    PTCLDY    74  59  59 SW9       29.94R

$$

INZ030>032-037>040-046>048-054>057-064-065-270200-
CENTRAL INDIANA

CITY           SKY/WX    TMP DP  RH WIND       PRES   REMARKS
CP ATTERBURY + CLOUDY    72  64  78 S8        29.96S
FRANKFORT +    MOCLDY    74  58  56 S16       29.94R
GREENWOOD *+   CLOUDY    73  57  56 SW8G17    29.96R
INDIANAPOLIS   MOCLDY    74  56  53 SW20      29.93R
-EAGLE CREEK   MOCLDY    74  57  55 SW15G23   29.93R
KOKOMO *+      MOCLDY    75  57  53 SW16      29.90R
MARION +       MOCLDY    72  65  78 S12G17    29.92R
MT COMFORT *+  CLOUDY    73  54  49 SW9       29.94R
SHELBYVILLE    CLOUDY    75  66  73 S12       29.95R
ZIONSVILLE +   MOCLDY    73  56  55 SW12      29.94R

$$

INZ033-034-041-042-049-050-058-059-270200-
EAST CENTRAL INDIANA

CITY           SKY/WX    TMP DP  RH WIND       PRES   REMARKS
MUNCIE         CLOUDY    73  65  75 S10G22    29.93R

$$

INZ060-061-067>069-081>083-085>088-270200-
SOUTHWEST INDIANA

CITY           SKY/WX    TMP DP  RH WIND       PRES   REMARKS
EVANSVILLE     PTCLDY    74  61  63 SW12      29.99R
HUNTINGBURG *+ MOCLDY    73  61  64 SW9       30.00R
WASHINGTON +   MOCLDY    73  55  53 SW8       29.97R

$$

INZ062-063-066-070>080-084-089>092-270200-
SOUTH CENTRAL AND SOUTHEAST INDIANA

CITY           SKY/WX    TMP DP  RH WIND       PRES   REMARKS
BLOOMINGTON    MOCLDY    74  58  57 SW8       29.97R
MADISON *+     CLOUDY    70  64  83 S9        30.03R
NORTH VERNON + CLOUDY    72  72 100 S8        30.00R
SEYMOUR +      CLOUDY    73  66  78 S9        29.98R

$$



USA.gov is the U.S. government's official web portal to all federal, state and local government web resources and services.